SWARM B

Last updated on Fri Dec 19 2025 00:03:36 GMT+0000 (Coordinated Universal Time)

1 39451U 13067A 25351.71023028 .00002957 00000+0 11017-3 0 9993 2 39451 87.7441 37.3525 0003127 82.9666 277.1938 15.27053080655532
UTC large
Height (km)
Speed (km/s)
/
Latitude / Longitude
Inclination (degrees)
Orbital Period (minutes)
Azimuth
Elevation
Range (km)
Doppler Factor

Next 0 passes for location: London (51.5072 / 0.1276)

Sorry there are no passes over London.